User: anonymous   Login
Location: Unspecified
(0.0000°N, 0.0000°E)
Time: 10:21:15
(UTC+00:00)
Language:

COSMOS 2453 - Orbit

View from above orbital plane
View from above orbital plane
View from above satellite
View from above satellite

Ground track
Ground track

The orbit data is extracted from the following two-line orbital elements,

1 35500U 09036C   17080.90911249 +.00000033 +00000-0 +16948-3 0  9999
2 35500 082.4924 023.9614 0006260 318.1378 041.9222 12.41450886349403
Epoch (UTC): 21 March 2017 21:49:07
Eccentricity: 0.0006260
inclination: 82.4924°
perigee height: 1495 km
apogee height: 1505 km
right ascension of ascending node: 23.9614°
argument of perigee: 318.1378°
revolutions per day: 12.41450886
mean anomaly at epoch: 41.9222°
orbit number at epoch: 34940

The dashed part of the orbit path shows where the satellite is in the earth's shadow,  

DLR